Time,TemperatureF,DewpointF,PressureIn,WindDirection,WindDirectionDegrees,WindSpeedMPH,WindSpeedGustMPH,Humidity,HourlyPrecipIn,Conditions,Clouds,dailyrainin,SoftwareType,DateUTC
2013-03-27 00:03:00,41.1,24.8,29.97,NNE,23,0.0,-999.0,52,0.00,,,0.00,Wunderground v.1.15,2013-03-27 07:03:00,
2013-03-27 00:08:00,41.1,24.8,29.97,NNE,23,0.0,-999.0,52,0.00,,,0.00,Wunderground v.1.15,2013-03-27 07:08:00,
2013-03-27 00:13:00,41.1,24.8,29.97,NNE,23,0.0,-999.0,52,0.00,,,0.00,Wunderground v.1.15,2013-03-27 07:13:00,
2013-03-27 00:18:00,41.1,24.8,29.97,NNE,23,0.0,-999.0,52,0.00,,,0.00,Wunderground v.1.15,2013-03-27 07:18:00,
2013-03-27 00:23:00,41.1,24.8,29.97,NNE,23,0.0,-999.0,52,0.00,,,0.00,Wunderground v.1.15,2013-03-27 07:23:00,
2013-03-27 00:28:00,41.1,24.8,29.97,NNE,23,0.0,-999.0,52,0.00,,,0.00,Wunderground v.1.15,2013-03-27 07:28:00,
2013-03-27 00:33:00,41.1,24.8,29.97,NNE,23,0.0,-999.0,52,0.00,,,0.00,Wunderground v.1.15,2013-03-27 07:33:00,
2013-03-27 00:38:00,41.1,24.8,29.97,NNE,23,0.0,-999.0,52,0.00,,,0.00,Wunderground v.1.15,2013-03-27 07:38:00,
2013-03-27 00:43:00,41.1,24.8,29.97,NNE,23,0.0,-999.0,52,0.00,,,0.00,Wunderground v.1.15,2013-03-27 07:43:00,
2013-03-27 00:48:00,41.0,25.6,29.97,NE,45,1.0,-999.0,54,0.00,,,0.00,Wunderground v.1.15,2013-03-27 07:48:00,
2013-03-27 00:53:00,41.0,25.6,29.97,NE,45,1.0,-999.0,54,0.00,,,0.00,Wunderground v.1.15,2013-03-27 07:53:00,
2013-03-27 00:58:00,41.0,25.6,29.97,NE,45,1.0,-999.0,54,0.00,,,0.00,Wunderground v.1.15,2013-03-27 07:58:00,
2013-03-27 01:03:00,41.0,25.6,29.97,NE,45,1.0,-999.0,54,0.00,,,0.00,Wunderground v.1.15,2013-03-27 08:03:00,
2013-03-27 01:08:00,41.0,25.6,29.97,NE,45,1.0,-999.0,54,0.00,,,0.00,Wunderground v.1.15,2013-03-27 08:08:00,
2013-03-27 01:13:00,41.0,25.6,29.97,NE,45,1.0,-999.0,54,0.00,,,0.00,Wunderground v.1.15,2013-03-27 08:13:00,
2013-03-27 01:18:00,40.4,18.0,29.97,NE,45,0.0,-999.0,40,0.00,,,0.00,Wunderground v.1.15,2013-03-27 08:18:00,
2013-03-27 01:23:00,40.4,18.0,29.97,NE,45,0.0,-999.0,40,0.00,,,0.00,Wunderground v.1.15,2013-03-27 08:23:00,
2013-03-27 01:28:00,40.4,18.0,29.97,NE,45,0.0,-999.0,40,0.00,,,0.00,Wunderground v.1.15,2013-03-27 08:28:00,
2013-03-27 01:33:00,40.4,18.0,29.97,NE,45,0.0,-999.0,40,0.00,,,0.00,Wunderground v.1.15,2013-03-27 08:33:00,
2013-03-27 01:38:00,40.4,18.0,29.97,NE,45,0.0,-999.0,40,0.00,,,0.00,Wunderground v.1.15,2013-03-27 08:38:00,
2013-03-27 01:43:00,40.4,18.0,29.97,NE,45,0.0,-999.0,40,0.00,,,0.00,Wunderground v.1.15,2013-03-27 08:43:00,
2013-03-27 01:48:00,42.1,33.0,29.97,WSW,248,1.0,-999.0,70,0.00,,,0.00,Wunderground v.1.15,2013-03-27 08:48:00,
2013-03-27 01:53:00,42.1,33.0,29.97,WSW,248,1.0,-999.0,70,0.00,,,0.00,Wunderground v.1.15,2013-03-27 08:53:00,
2013-03-27 01:58:00,42.1,33.0,29.97,WSW,248,1.0,-999.0,70,0.00,,,0.00,Wunderground v.1.15,2013-03-27 08:58:00,
2013-03-27 02:03:00,42.1,33.0,29.97,WSW,248,1.0,-999.0,70,0.00,,,0.00,Wunderground v.1.15,2013-03-27 09:03:00,
2013-03-27 02:08:00,42.1,33.0,29.97,WSW,248,1.0,-999.0,70,0.00,,,0.00,Wunderground v.1.15,2013-03-27 09:08:00,
2013-03-27 02:13:00,42.1,33.0,29.97,WSW,248,1.0,-999.0,70,0.00,,,0.00,Wunderground v.1.15,2013-03-27 09:13:00,
2013-03-27 02:18:00,42.4,34.7,29.97,North,0,1.0,-999.0,74,0.00,,,0.00,Wunderground v.1.15,2013-03-27 09:18:00,
2013-03-27 02:23:00,42.4,34.7,29.97,North,0,1.0,-999.0,74,0.00,,,0.00,Wunderground v.1.15,2013-03-27 09:23:00,
2013-03-27 02:28:00,42.4,34.7,29.97,North,0,1.0,-999.0,74,0.00,,,0.00,Wunderground v.1.15,2013-03-27 09:28:00,
2013-03-27 02:33:00,42.4,34.7,29.97,North,0,1.0,-999.0,74,0.00,,,0.00,Wunderground v.1.15,2013-03-27 09:33:00,
2013-03-27 02:38:00,42.4,34.7,29.97,North,0,1.0,-999.0,74,0.00,,,0.00,Wunderground v.1.15,2013-03-27 09:38:00,
2013-03-27 02:43:00,42.4,34.7,29.97,North,0,1.0,-999.0,74,0.00,,,0.00,Wunderground v.1.15,2013-03-27 09:43:00,
2013-03-27 02:48:00,42.9,36.5,29.96,WSW,248,1.0,-999.0,78,0.00,,,0.00,Wunderground v.1.15,2013-03-27 09:48:00,
2013-03-27 02:53:00,42.9,36.5,29.96,WSW,248,1.0,-999.0,78,0.00,,,0.00,Wunderground v.1.15,2013-03-27 09:53:00,
2013-03-27 02:58:00,42.9,36.5,29.96,WSW,248,1.0,-999.0,78,0.00,,,0.00,Wunderground v.1.15,2013-03-27 09:58:00,
2013-03-27 03:03:00,42.9,36.5,29.96,WSW,248,1.0,-999.0,78,0.00,,,0.00,Wunderground v.1.15,2013-03-27 10:03:00,
2013-03-27 03:08:00,42.9,36.5,29.96,WSW,248,1.0,-999.0,78,0.00,,,0.00,Wunderground v.1.15,2013-03-27 10:08:00,
2013-03-27 03:13:00,42.9,36.5,29.96,WSW,248,1.0,-999.0,78,0.00,,,0.00,Wunderground v.1.15,2013-03-27 10:13:00,
2013-03-27 03:18:00,42.8,36.4,29.96,SW,225,1.0,-999.0,78,0.00,,,0.00,Wunderground v.1.15,2013-03-27 10:18:00,
2013-03-27 03:23:00,42.8,36.4,29.96,SW,225,1.0,-999.0,78,0.00,,,0.00,Wunderground v.1.15,2013-03-27 10:23:00,
2013-03-27 03:28:00,42.8,36.4,29.96,SW,225,1.0,-999.0,78,0.00,,,0.00,Wunderground v.1.15,2013-03-27 10:28:00,
2013-03-27 03:33:00,42.8,36.4,29.96,SW,225,1.0,-999.0,78,0.00,,,0.00,Wunderground v.1.15,2013-03-27 10:33:00,
2013-03-27 03:38:00,42.8,36.4,29.96,SW,225,1.0,-999.0,78,0.00,,,0.00,Wunderground v.1.15,2013-03-27 10:38:00,
2013-03-27 03:43:00,42.8,36.4,29.96,SW,225,1.0,-999.0,78,0.00,,,0.00,Wunderground v.1.15,2013-03-27 10:43:00,
2013-03-27 03:48:00,42.9,36.8,29.96,WSW,248,2.0,-999.0,79,0.00,,,0.00,Wunderground v.1.15,2013-03-27 10:48:00,
2013-03-27 03:53:00,42.9,36.8,29.96,WSW,248,2.0,-999.0,79,0.00,,,0.00,Wunderground v.1.15,2013-03-27 10:53:00,
2013-03-27 03:58:00,42.9,36.8,29.96,WSW,248,2.0,-999.0,79,0.00,,,0.00,Wunderground v.1.15,2013-03-27 10:58:00,
2013-03-27 04:03:00,42.9,36.8,29.96,WSW,248,2.0,-999.0,79,0.00,,,0.00,Wunderground v.1.15,2013-03-27 11:03:00,
2013-03-27 04:08:00,42.9,36.8,29.96,WSW,248,2.0,-999.0,79,0.00,,,0.00,Wunderground v.1.15,2013-03-27 11:08:00,
2013-03-27 04:13:00,42.9,36.8,29.96,WSW,248,2.0,-999.0,79,0.00,,,0.00,Wunderground v.1.15,2013-03-27 11:13:00,
2013-03-27 04:18:00,42.2,35.8,29.95,West,270,1.0,-999.0,78,0.00,,,0.00,Wunderground v.1.15,2013-03-27 11:18:00,
2013-03-27 04:23:00,42.2,35.8,29.95,West,270,1.0,-999.0,78,0.00,,,0.00,Wunderground v.1.15,2013-03-27 11:23:00,
2013-03-27 04:28:00,42.2,35.8,29.95,West,270,1.0,-999.0,78,0.00,,,0.00,Wunderground v.1.15,2013-03-27 11:28:00,
2013-03-27 04:33:00,42.2,35.8,29.95,West,270,1.0,-999.0,78,0.00,,,0.00,Wunderground v.1.15,2013-03-27 11:33:00,
2013-03-27 04:38:00,42.2,35.8,29.95,West,270,1.0,-999.0,78,0.00,,,0.00,Wunderground v.1.15,2013-03-27 11:38:00,
2013-03-27 04:43:00,42.2,35.8,29.95,West,270,1.0,-999.0,78,0.00,,,0.00,Wunderground v.1.15,2013-03-27 11:43:00,
2013-03-27 04:48:00,42.0,35.6,29.96,SW,225,1.0,-999.0,78,0.00,,,0.00,Wunderground v.1.15,2013-03-27 11:48:00,
2013-03-27 04:53:00,42.0,35.6,29.96,SW,225,1.0,-999.0,78,0.00,,,0.00,Wunderground v.1.15,2013-03-27 11:53:00,
2013-03-27 04:58:00,42.0,35.6,29.96,SW,225,1.0,-999.0,78,0.00,,,0.00,Wunderground v.1.15,2013-03-27 11:58:00,
2013-03-27 05:03:00,42.0,35.6,29.96,SW,225,1.0,-999.0,78,0.00,,,0.00,Wunderground v.1.15,2013-03-27 12:03:00,
2013-03-27 05:08:00,42.0,35.6,29.96,SW,225,1.0,-999.0,78,0.00,,,0.00,Wunderground v.1.15,2013-03-27 12:08:00,
2013-03-27 05:13:00,42.0,35.6,29.96,SW,225,1.0,-999.0,78,0.00,,,0.00,Wunderground v.1.15,2013-03-27 12:13:00,
2013-03-27 05:18:00,41.6,34.3,29.95,WSW,248,1.0,-999.0,75,0.00,,,0.00,Wunderground v.1.15,2013-03-27 12:18:00,
2013-03-27 05:23:00,41.6,34.3,29.95,WSW,248,1.0,-999.0,75,0.00,,,0.00,Wunderground v.1.15,2013-03-27 12:23:00,
2013-03-27 05:28:00,41.6,34.3,29.95,WSW,248,1.0,-999.0,75,0.00,,,0.00,Wunderground v.1.15,2013-03-27 12:28:00,
2013-03-27 05:33:00,41.6,34.3,29.95,WSW,248,1.0,-999.0,75,0.00,,,0.00,Wunderground v.1.15,2013-03-27 12:33:00,
2013-03-27 05:38:00,41.6,34.3,29.95,WSW,248,1.0,-999.0,75,0.00,,,0.00,Wunderground v.1.15,2013-03-27 12:38:00,
2013-03-27 05:43:00,41.6,34.3,29.95,WSW,248,1.0,-999.0,75,0.00,,,0.00,Wunderground v.1.15,2013-03-27 12:43:00,
2013-03-27 05:48:00,41.7,34.4,29.94,WSW,248,1.0,-999.0,75,0.00,,,0.00,Wunderground v.1.15,2013-03-27 12:48:00,
2013-03-27 05:53:00,41.7,34.4,29.94,WSW,248,1.0,-999.0,75,0.00,,,0.00,Wunderground v.1.15,2013-03-27 12:53:00,
2013-03-27 05:58:00,41.7,34.4,29.94,WSW,248,1.0,-999.0,75,0.00,,,0.00,Wunderground v.1.15,2013-03-27 12:58:00,
2013-03-27 06:03:00,41.7,34.4,29.94,WSW,248,1.0,-999.0,75,0.00,,,0.00,Wunderground v.1.15,2013-03-27 13:03:00,
2013-03-27 06:08:00,41.7,34.4,29.94,WSW,248,1.0,-999.0,75,0.00,,,0.00,Wunderground v.1.15,2013-03-27 13:08:00,
2013-03-27 06:13:00,41.7,34.4,29.94,WSW,248,1.0,-999.0,75,0.00,,,0.00,Wunderground v.1.15,2013-03-27 13:13:00,
2013-03-27 06:18:00,41.5,33.5,29.94,SW,225,2.0,-999.0,73,0.00,,,0.00,Wunderground v.1.15,2013-03-27 13:18:00,
2013-03-27 06:23:00,41.5,33.5,29.94,SW,225,2.0,-999.0,73,0.00,,,0.00,Wunderground v.1.15,2013-03-27 13:23:00,
2013-03-27 06:28:00,41.5,33.5,29.94,SW,225,2.0,-999.0,73,0.00,,,0.00,Wunderground v.1.15,2013-03-27 13:28:00,
2013-03-27 06:33:00,41.5,33.5,29.94,SW,225,2.0,-999.0,73,0.00,,,0.00,Wunderground v.1.15,2013-03-27 13:33:00,
2013-03-27 06:38:00,41.5,33.5,29.94,SW,225,2.0,-999.0,73,0.00,,,0.00,Wunderground v.1.15,2013-03-27 13:38:00,
2013-03-27 06:43:00,41.5,33.5,29.94,SW,225,2.0,-999.0,73,0.00,,,0.00,Wunderground v.1.15,2013-03-27 13:43:00,
2013-03-27 06:48:00,41.6,34.9,29.95,West,270,1.0,-999.0,77,0.00,,,0.00,Wunderground v.1.15,2013-03-27 13:48:00,
2013-03-27 06:53:00,41.6,34.9,29.95,West,270,1.0,-999.0,77,0.00,,,0.00,Wunderground v.1.15,2013-03-27 13:53:00,
2013-03-27 06:58:00,41.6,34.9,29.95,West,270,1.0,-999.0,77,0.00,,,0.00,Wunderground v.1.15,2013-03-27 13:58:00,
2013-03-27 07:03:00,41.6,34.9,29.95,West,270,1.0,-999.0,77,0.00,,,0.00,Wunderground v.1.15,2013-03-27 14:03:00,
2013-03-27 07:08:00,41.6,34.9,29.95,West,270,1.0,-999.0,77,0.00,,,0.00,Wunderground v.1.15,2013-03-27 14:08:00,
2013-03-27 07:13:00,41.6,34.9,29.95,West,270,1.0,-999.0,77,0.00,,,0.00,Wunderground v.1.15,2013-03-27 14:13:00,
2013-03-27 07:18:00,41.0,31.2,29.94,WSW,248,1.0,-999.0,68,0.00,,,0.00,Wunderground v.1.15,2013-03-27 14:18:00,
2013-03-27 07:23:00,41.0,31.2,29.94,WSW,248,1.0,-999.0,68,0.00,,,0.00,Wunderground v.1.15,2013-03-27 14:23:00,
2013-03-27 07:28:00,41.0,31.2,29.94,WSW,248,1.0,-999.0,68,0.00,,,0.00,Wunderground v.1.15,2013-03-27 14:28:00,
2013-03-27 07:33:00,41.0,31.2,29.94,WSW,248,1.0,-999.0,68,0.00,,,0.00,Wunderground v.1.15,2013-03-27 14:33:00,
2013-03-27 07:38:00,41.0,31.2,29.94,WSW,248,1.0,-999.0,68,0.00,,,0.00,Wunderground v.1.15,2013-03-27 14:38:00,
2013-03-27 07:43:00,41.0,31.2,29.94,WSW,248,1.0,-999.0,68,0.00,,,0.00,Wunderground v.1.15,2013-03-27 14:43:00,
2013-03-27 07:48:00,43.2,37.1,29.94,WNW,293,1.0,-999.0,79,0.00,,,0.00,Wunderground v.1.15,2013-03-27 14:48:00,
2013-03-27 07:53:00,43.2,37.1,29.94,WNW,293,1.0,-999.0,79,0.00,,,0.00,Wunderground v.1.15,2013-03-27 14:53:00,
2013-03-27 07:58:00,43.2,37.1,29.94,WNW,293,1.0,-999.0,79,0.00,,,0.00,Wunderground v.1.15,2013-03-27 14:58:00,
2013-03-27 08:03:00,43.2,37.1,29.94,WNW,293,1.0,-999.0,79,0.00,,,0.00,Wunderground v.1.15,2013-03-27 15:03:00,
2013-03-27 08:08:00,43.2,37.1,29.94,WNW,293,1.0,-999.0,79,0.00,,,0.00,Wunderground v.1.15,2013-03-27 15:08:00,
2013-03-27 08:13:00,43.2,37.1,29.94,WNW,293,1.0,-999.0,79,0.00,,,0.00,Wunderground v.1.15,2013-03-27 15:13:00,
2013-03-27 08:18:00,44.0,38.2,29.94,West,270,1.0,-999.0,80,0.00,,,0.00,Wunderground v.1.15,2013-03-27 15:18:00,
2013-03-27 08:23:00,44.0,38.2,29.94,West,270,1.0,-999.0,80,0.00,,,0.00,Wunderground v.1.15,2013-03-27 15:23:00,
2013-03-27 08:28:00,44.0,38.2,29.94,West,270,1.0,-999.0,80,0.00,,,0.00,Wunderground v.1.15,2013-03-27 15:28:00,
2013-03-27 08:33:00,44.0,38.2,29.94,West,270,1.0,-999.0,80,0.00,,,0.00,Wunderground v.1.15,2013-03-27 15:33:00,
2013-03-27 08:38:00,44.0,38.2,29.94,West,270,1.0,-999.0,80,0.00,,,0.00,Wunderground v.1.15,2013-03-27 15:38:00,
2013-03-27 08:43:00,44.0,38.2,29.94,West,270,1.0,-999.0,80,0.00,,,0.00,Wunderground v.1.15,2013-03-27 15:43:00,
2013-03-27 08:48:00,45.9,40.1,29.94,NNW,338,1.0,-999.0,80,0.00,,,0.00,Wunderground v.1.15,2013-03-27 15:48:00,
2013-03-27 08:53:00,45.9,40.1,29.94,NNW,338,1.0,-999.0,80,0.00,,,0.00,Wunderground v.1.15,2013-03-27 15:53:00,
2013-03-27 08:58:00,45.9,40.1,29.94,NNW,338,1.0,-999.0,80,0.00,,,0.00,Wunderground v.1.15,2013-03-27 15:58:00,
2013-03-27 09:03:00,45.9,40.1,29.94,NNW,338,1.0,-999.0,80,0.00,,,0.00,Wunderground v.1.15,2013-03-27 16:03:00,
2013-03-27 09:08:00,45.9,40.1,29.94,NNW,338,1.0,-999.0,80,0.00,,,0.00,Wunderground v.1.15,2013-03-27 16:08:00,
2013-03-27 09:13:00,45.9,40.1,29.94,NNW,338,1.0,-999.0,80,0.00,,,0.00,Wunderground v.1.15,2013-03-27 16:13:00,
2013-03-27 09:18:00,47.8,40.9,29.94,NW,315,1.0,-999.0,77,0.00,,,0.00,Wunderground v.1.15,2013-03-27 16:18:00,
2013-03-27 09:23:00,47.8,40.9,29.94,NW,315,1.0,-999.0,77,0.00,,,0.00,Wunderground v.1.15,2013-03-27 16:23:00,
2013-03-27 09:28:00,47.8,40.9,29.94,NW,315,1.0,-999.0,77,0.00,,,0.00,Wunderground v.1.15,2013-03-27 16:28:00,
2013-03-27 09:33:00,47.8,40.9,29.94,NW,315,1.0,-999.0,77,0.00,,,0.00,Wunderground v.1.15,2013-03-27 16:33:00,
2013-03-27 09:38:00,47.8,40.9,29.94,NW,315,1.0,-999.0,77,0.00,,,0.00,Wunderground v.1.15,2013-03-27 16:38:00,
2013-03-27 09:43:00,47.8,40.9,29.94,NW,315,1.0,-999.0,77,0.00,,,0.00,Wunderground v.1.15,2013-03-27 16:43:00,
2013-03-27 09:48:00,50.3,43.7,29.94,WNW,293,1.0,-999.0,78,0.00,,,0.00,Wunderground v.1.15,2013-03-27 16:48:00,
2013-03-27 09:53:00,50.3,43.7,29.94,WNW,293,1.0,-999.0,78,0.00,,,0.00,Wunderground v.1.15,2013-03-27 16:53:00,
2013-03-27 09:58:00,50.3,43.7,29.94,WNW,293,1.0,-999.0,78,0.00,,,0.00,Wunderground v.1.15,2013-03-27 16:58:00,
2013-03-27 10:03:00,50.3,43.7,29.94,WNW,293,1.0,-999.0,78,0.00,,,0.00,Wunderground v.1.15,2013-03-27 17:03:00,
2013-03-27 10:08:00,50.3,43.7,29.94,WNW,293,1.0,-999.0,78,0.00,,,0.00,Wunderground v.1.15,2013-03-27 17:08:00,
2013-03-27 10:13:00,50.3,43.7,29.94,WNW,293,1.0,-999.0,78,0.00,,,0.00,Wunderground v.1.15,2013-03-27 17:13:00,
2013-03-27 10:18:00,51.7,42.2,29.94,NNW,338,1.0,-999.0,70,0.00,,,0.00,Wunderground v.1.15,2013-03-27 17:18:00,
2013-03-27 10:23:00,51.7,42.2,29.94,NNW,338,1.0,-999.0,70,0.00,,,0.00,Wunderground v.1.15,2013-03-27 17:23:00,
2013-03-27 10:28:00,51.7,42.2,29.94,NNW,338,1.0,-999.0,70,0.00,,,0.00,Wunderground v.1.15,2013-03-27 17:28:00,
2013-03-27 10:33:00,51.7,42.2,29.94,NNW,338,1.0,-999.0,70,0.00,,,0.00,Wunderground v.1.15,2013-03-27 17:33:00,
2013-03-27 10:38:00,51.7,42.2,29.94,NNW,338,1.0,-999.0,70,0.00,,,0.00,Wunderground v.1.15,2013-03-27 17:38:00,
2013-03-27 10:43:00,51.7,42.2,29.94,NNW,338,1.0,-999.0,70,0.00,,,0.00,Wunderground v.1.15,2013-03-27 17:43:00,
2013-03-27 10:48:00,53.9,43.6,29.94,SW,225,2.0,-999.0,68,0.00,,,0.00,Wunderground v.1.15,2013-03-27 17:48:00,
2013-03-27 10:53:00,53.9,43.6,29.94,SW,225,2.0,-999.0,68,0.00,,,0.00,Wunderground v.1.15,2013-03-27 17:53:00,
2013-03-27 10:58:00,53.9,43.6,29.94,SW,225,2.0,-999.0,68,0.00,,,0.00,Wunderground v.1.15,2013-03-27 17:58:00,
2013-03-27 11:03:00,53.9,43.6,29.94,SW,225,2.0,-999.0,68,0.00,,,0.00,Wunderground v.1.15,2013-03-27 18:03:00,
2013-03-27 11:08:00,53.9,43.6,29.94,SW,225,2.0,-999.0,68,0.00,,,0.00,Wunderground v.1.15,2013-03-27 18:08:00,
2013-03-27 11:13:00,53.9,43.6,29.94,SW,225,2.0,-999.0,68,0.00,,,0.00,Wunderground v.1.15,2013-03-27 18:13:00,
2013-03-27 11:18:00,55.4,45.4,29.94,SW,225,2.0,-999.0,69,0.00,,,0.00,Wunderground v.1.15,2013-03-27 18:18:00,
2013-03-27 11:23:00,55.4,45.4,29.94,SW,225,2.0,-999.0,69,0.00,,,0.00,Wunderground v.1.15,2013-03-27 18:23:00,
2013-03-27 11:28:00,55.4,45.4,29.94,SW,225,2.0,-999.0,69,0.00,,,0.00,Wunderground v.1.15,2013-03-27 18:28:00,
2013-03-27 11:33:00,55.4,45.4,29.94,SW,225,2.0,-999.0,69,0.00,,,0.00,Wunderground v.1.15,2013-03-27 18:33:00,
2013-03-27 11:38:00,55.4,45.4,29.94,SW,225,2.0,-999.0,69,0.00,,,0.00,Wunderground v.1.15,2013-03-27 18:38:00,
2013-03-27 11:43:00,55.4,45.4,29.94,SW,225,2.0,-999.0,69,0.00,,,0.00,Wunderground v.1.15,2013-03-27 18:43:00,
2013-03-27 11:48:00,55.1,43.9,29.94,SW,225,1.0,-999.0,66,0.00,,,0.00,Wunderground v.1.15,2013-03-27 18:48:00,
2013-03-27 11:53:00,55.1,43.9,29.94,SW,225,1.0,-999.0,66,0.00,,,0.00,Wunderground v.1.15,2013-03-27 18:53:00,
2013-03-27 11:58:00,55.1,43.9,29.94,SW,225,1.0,-999.0,66,0.00,,,0.00,Wunderground v.1.15,2013-03-27 18:58:00,
2013-03-27 12:03:00,55.1,43.9,29.94,SW,225,1.0,-999.0,66,0.00,,,0.00,Wunderground v.1.15,2013-03-27 19:03:00,
2013-03-27 12:08:00,55.1,43.9,29.94,SW,225,1.0,-999.0,66,0.00,,,0.00,Wunderground v.1.15,2013-03-27 19:08:00,
2013-03-27 12:13:00,55.1,43.9,29.94,SW,225,1.0,-999.0,66,0.00,,,0.00,Wunderground v.1.15,2013-03-27 19:13:00,
2013-03-27 12:18:00,54.6,43.9,29.94,SW,225,1.0,-999.0,67,0.00,,,0.00,Wunderground v.1.15,2013-03-27 19:18:00,
2013-03-27 12:23:00,54.6,43.9,29.94,SW,225,1.0,-999.0,67,0.00,,,0.00,Wunderground v.1.15,2013-03-27 19:23:00,
2013-03-27 12:28:00,54.6,43.9,29.94,SW,225,1.0,-999.0,67,0.00,,,0.00,Wunderground v.1.15,2013-03-27 19:28:00,
2013-03-27 12:33:00,54.6,43.9,29.94,SW,225,1.0,-999.0,67,0.00,,,0.00,Wunderground v.1.15,2013-03-27 19:33:00,
2013-03-27 12:38:00,54.6,43.9,29.94,SW,225,1.0,-999.0,67,0.00,,,0.00,Wunderground v.1.15,2013-03-27 19:38:00,
2013-03-27 12:43:00,54.6,43.9,29.94,SW,225,1.0,-999.0,67,0.00,,,0.00,Wunderground v.1.15,2013-03-27 19:43:00,
2013-03-27 12:48:00,53.9,44.0,29.94,SW,225,2.0,-999.0,69,0.00,,,0.00,Wunderground v.1.15,2013-03-27 19:48:00,
2013-03-27 12:53:00,53.9,44.0,29.94,SW,225,2.0,-999.0,69,0.00,,,0.00,Wunderground v.1.15,2013-03-27 19:53:00,
2013-03-27 12:58:00,53.9,44.0,29.94,SW,225,2.0,-999.0,69,0.00,,,0.00,Wunderground v.1.15,2013-03-27 19:58:00,
2013-03-27 13:03:00,53.9,44.0,29.94,SW,225,2.0,-999.0,69,0.00,,,0.00,Wunderground v.1.15,2013-03-27 20:03:00,
2013-03-27 13:08:00,53.9,44.0,29.94,SW,225,2.0,-999.0,69,0.00,,,0.00,Wunderground v.1.15,2013-03-27 20:08:00,
2013-03-27 13:13:00,53.9,44.0,29.94,SW,225,2.0,-999.0,69,0.00,,,0.00,Wunderground v.1.15,2013-03-27 20:13:00,
2013-03-27 13:18:00,54.1,44.5,29.94,West,270,1.0,-999.0,70,0.00,,,0.00,Wunderground v.1.15,2013-03-27 20:18:00,
2013-03-27 13:23:00,54.1,44.5,29.94,West,270,1.0,-999.0,70,0.00,,,0.00,Wunderground v.1.15,2013-03-27 20:23:00,
2013-03-27 13:28:00,54.1,44.5,29.94,West,270,1.0,-999.0,70,0.00,,,0.00,Wunderground v.1.15,2013-03-27 20:28:00,
2013-03-27 13:33:00,54.1,44.5,29.94,West,270,1.0,-999.0,70,0.00,,,0.00,Wunderground v.1.15,2013-03-27 20:33:00,
2013-03-27 13:38:00,54.1,44.5,29.94,West,270,1.0,-999.0,70,0.00,,,0.00,Wunderground v.1.15,2013-03-27 20:38:00,
2013-03-27 13:43:00,54.1,44.5,29.94,West,270,1.0,-999.0,70,0.00,,,0.00,Wunderground v.1.15,2013-03-27 20:43:00,
2013-03-27 13:48:00,55.3,44.5,29.94,SW,225,1.0,-999.0,67,0.00,,,0.00,Wunderground v.1.15,2013-03-27 20:48:00,
2013-03-27 13:53:00,55.3,44.5,29.94,SW,225,1.0,-999.0,67,0.00,,,0.00,Wunderground v.1.15,2013-03-27 20:53:00,
2013-03-27 13:58:00,55.3,44.5,29.94,SW,225,1.0,-999.0,67,0.00,,,0.00,Wunderground v.1.15,2013-03-27 20:58:00,
2013-03-27 14:03:00,55.3,44.5,29.94,SW,225,1.0,-999.0,67,0.00,,,0.00,Wunderground v.1.15,2013-03-27 21:03:00,
2013-03-27 14:08:00,55.3,44.5,29.94,SW,225,1.0,-999.0,67,0.00,,,0.00,Wunderground v.1.15,2013-03-27 21:08:00,
2013-03-27 14:13:00,55.3,44.5,29.94,SW,225,1.0,-999.0,67,0.00,,,0.00,Wunderground v.1.15,2013-03-27 21:13:00,
2013-03-27 14:18:00,55.4,44.6,29.94,SW,225,1.0,-999.0,67,0.00,,,0.00,Wunderground v.1.15,2013-03-27 21:18:00,
2013-03-27 14:23:00,55.4,44.6,29.94,SW,225,1.0,-999.0,67,0.00,,,0.00,Wunderground v.1.15,2013-03-27 21:23:00,
2013-03-27 14:28:00,55.4,44.6,29.94,SW,225,1.0,-999.0,67,0.00,,,0.00,Wunderground v.1.15,2013-03-27 21:28:00,
2013-03-27 14:33:00,55.4,44.6,29.94,SW,225,1.0,-999.0,67,0.00,,,0.00,Wunderground v.1.15,2013-03-27 21:33:00,
2013-03-27 14:38:00,55.4,44.6,29.94,SW,225,1.0,-999.0,67,0.00,,,0.00,Wunderground v.1.15,2013-03-27 21:38:00,
2013-03-27 14:43:00,55.4,44.6,29.94,SW,225,1.0,-999.0,67,0.00,,,0.00,Wunderground v.1.15,2013-03-27 21:43:00,
2013-03-27 14:48:00,55.3,44.9,29.94,SSE,158,2.0,-999.0,68,0.00,,,0.00,Wunderground v.1.15,2013-03-27 21:48:00,
2013-03-27 14:53:00,55.3,44.9,29.94,SSE,158,2.0,-999.0,68,0.00,,,0.00,Wunderground v.1.15,2013-03-27 21:53:00,
2013-03-27 14:58:00,55.3,44.9,29.94,SSE,158,2.0,-999.0,68,0.00,,,0.00,Wunderground v.1.15,2013-03-27 21:58:00,
2013-03-27 15:03:00,55.3,44.9,29.94,SSE,158,2.0,-999.0,68,0.00,,,0.00,Wunderground v.1.15,2013-03-27 22:03:00,
2013-03-27 15:08:00,55.3,44.9,29.94,SSE,158,2.0,-999.0,68,0.00,,,0.00,Wunderground v.1.15,2013-03-27 22:08:00,
2013-03-27 15:13:00,55.3,44.9,29.94,SSE,158,2.0,-999.0,68,0.00,,,0.00,Wunderground v.1.15,2013-03-27 22:13:00,
2013-03-27 15:18:00,55.6,44.4,29.95,SSW,203,1.0,-999.0,66,0.00,,,0.00,Wunderground v.1.15,2013-03-27 22:18:00,
2013-03-27 15:23:00,55.6,44.4,29.95,SSW,203,1.0,-999.0,66,0.00,,,0.00,Wunderground v.1.15,2013-03-27 22:23:00,
2013-03-27 15:28:00,55.6,44.4,29.95,SSW,203,1.0,-999.0,66,0.00,,,0.00,Wunderground v.1.15,2013-03-27 22:28:00,
2013-03-27 15:33:00,55.6,44.4,29.95,SSW,203,1.0,-999.0,66,0.00,,,0.00,Wunderground v.1.15,2013-03-27 22:33:00,
2013-03-27 15:38:00,55.6,44.4,29.95,SSW,203,1.0,-999.0,66,0.00,,,0.00,Wunderground v.1.15,2013-03-27 22:38:00,
2013-03-27 15:43:00,55.6,44.4,29.95,SSW,203,1.0,-999.0,66,0.00,,,0.00,Wunderground v.1.15,2013-03-27 22:43:00,
2013-03-27 15:48:00,55.7,44.5,29.95,SSW,203,1.0,-999.0,66,0.00,,,0.00,Wunderground v.1.15,2013-03-27 22:48:00,
2013-03-27 15:53:00,55.7,44.5,29.95,SSW,203,1.0,-999.0,66,0.00,,,0.00,Wunderground v.1.15,2013-03-27 22:53:00,
2013-03-27 15:58:00,55.7,44.5,29.95,SSW,203,1.0,-999.0,66,0.00,,,0.00,Wunderground v.1.15,2013-03-27 22:58:00,
2013-03-27 16:03:00,55.7,44.5,29.95,SSW,203,1.0,-999.0,66,0.00,,,0.00,Wunderground v.1.15,2013-03-27 23:03:00,
2013-03-27 16:08:00,55.7,44.5,29.95,SSW,203,1.0,-999.0,66,0.00,,,0.00,Wunderground v.1.15,2013-03-27 23:08:00,
2013-03-27 16:13:00,55.7,44.5,29.95,SSW,203,1.0,-999.0,66,0.00,,,0.00,Wunderground v.1.15,2013-03-27 23:13:00,
2013-03-27 16:18:00,56.9,44.4,29.95,WSW,248,1.0,-999.0,63,0.00,,,0.00,Wunderground v.1.15,2013-03-27 23:18:00,
2013-03-27 16:23:00,56.9,44.4,29.95,WSW,248,1.0,-999.0,63,0.00,,,0.00,Wunderground v.1.15,2013-03-27 23:23:00,
2013-03-27 16:28:00,56.9,44.4,29.95,WSW,248,1.0,-999.0,63,0.00,,,0.00,Wunderground v.1.15,2013-03-27 23:28:00,
2013-03-27 16:33:00,56.9,44.4,29.95,WSW,248,1.0,-999.0,63,0.00,,,0.00,Wunderground v.1.15,2013-03-27 23:33:00,
2013-03-27 16:38:00,56.9,44.4,29.95,WSW,248,1.0,-999.0,63,0.00,,,0.00,Wunderground v.1.15,2013-03-27 23:38:00,
2013-03-27 16:43:00,56.9,44.4,29.95,WSW,248,1.0,-999.0,63,0.00,,,0.00,Wunderground v.1.15,2013-03-27 23:43:00,
2013-03-27 16:48:00,58.0,45.0,29.95,SSE,158,0.0,-999.0,62,0.00,,,0.00,Wunderground v.1.15,2013-03-27 23:48:00,
2013-03-27 16:53:00,58.0,45.0,29.95,SSE,158,0.0,-999.0,62,0.00,,,0.00,Wunderground v.1.15,2013-03-27 23:53:00,
2013-03-27 16:58:00,58.0,45.0,29.95,SSE,158,0.0,-999.0,62,0.00,,,0.00,Wunderground v.1.15,2013-03-27 23:58:00,
2013-03-27 17:03:00,58.0,45.0,29.95,SSE,158,0.0,-999.0,62,0.00,,,0.00,Wunderground v.1.15,2013-03-28 00:03:00,
2013-03-27 17:08:00,58.0,45.0,29.95,SSE,158,0.0,-999.0,62,0.00,,,0.00,Wunderground v.1.15,2013-03-28 00:08:00,
2013-03-27 17:13:00,58.0,45.0,29.95,SSE,158,0.0,-999.0,62,0.00,,,0.00,Wunderground v.1.15,2013-03-28 00:13:00,
2013-03-27 17:18:00,57.0,45.3,29.95,SSE,158,1.0,-999.0,65,0.00,,,0.00,Wunderground v.1.15,2013-03-28 00:18:00,
2013-03-27 17:23:00,57.0,45.3,29.95,SSE,158,1.0,-999.0,65,0.00,,,0.00,Wunderground v.1.15,2013-03-28 00:23:00,
2013-03-27 17:28:00,57.0,45.3,29.95,SSE,158,1.0,-999.0,65,0.00,,,0.00,Wunderground v.1.15,2013-03-28 00:28:00,
2013-03-27 17:33:00,57.0,45.3,29.95,SSE,158,1.0,-999.0,65,0.00,,,0.00,Wunderground v.1.15,2013-03-28 00:33:00,
2013-03-27 17:38:00,57.0,45.3,29.95,SSE,158,1.0,-999.0,65,0.00,,,0.00,Wunderground v.1.15,2013-03-28 00:38:00,
2013-03-27 17:43:00,57.0,45.3,29.95,SSE,158,1.0,-999.0,65,0.00,,,0.00,Wunderground v.1.15,2013-03-28 00:43:00,
2013-03-27 17:48:00,55.8,45.0,29.95,WSW,248,0.0,-999.0,67,0.00,,,0.00,Wunderground v.1.15,2013-03-28 00:48:00,
2013-03-27 17:53:00,55.8,45.0,29.95,WSW,248,0.0,-999.0,67,0.00,,,0.00,Wunderground v.1.15,2013-03-28 00:53:00,
2013-03-27 17:58:00,55.8,45.0,29.95,WSW,248,0.0,-999.0,67,0.00,,,0.00,Wunderground v.1.15,2013-03-28 00:58:00,
2013-03-27 18:35:00,54.7,43.6,29.95,WSW,257,0.0,0.0,66,0.00,,,0.00,Wunderground v.1.15,2013-03-28 01:35:00,
2013-03-27 18:45:00,54.2,43.5,29.95,WSW,257,0.0,0.0,67,0.00,,,0.00,Wunderground v.1.15,2013-03-28 01:45:00,
2013-03-27 18:50:00,53.9,44.0,29.96,WSW,257,0.0,0.0,69,0.00,,,0.00,Wunderground v.1.15,2013-03-28 01:50:00,
2013-03-27 18:55:00,53.6,45.2,29.96,WSW,257,0.0,0.0,73,0.00,,,0.00,Wunderground v.1.15,2013-03-28 01:55:00,
2013-03-27 19:00:00,53.2,45.5,29.96,WSW,257,0.0,0.0,75,0.00,,,0.00,Wunderground v.1.15,2013-03-28 02:00:00,
2013-03-27 19:05:00,52.8,45.1,29.96,WSW,257,0.0,2.0,75,0.00,,,0.00,Wunderground v.1.15,2013-03-28 02:05:00,
2013-03-27 19:10:00,52.4,44.4,29.95,NNE,18,0.0,2.0,74,0.00,,,0.00,Wunderground v.1.15,2013-03-28 02:10:00,
2013-03-27 19:15:00,52.2,44.9,29.95,NNE,16,0.0,2.0,76,0.00,,,0.00,Wunderground v.1.15,2013-03-28 02:15:00,
2013-03-27 19:20:00,52.0,45.0,29.95,NNE,16,0.0,2.0,77,0.00,,,0.00,Wunderground v.1.15,2013-03-28 02:20:00,
2013-03-27 19:25:00,51.5,44.9,29.95,NNE,16,0.0,2.0,78,0.00,,,0.00,Wunderground v.1.15,2013-03-28 02:25:00,
2013-03-27 19:35:00,50.7,44.4,29.95,NNE,16,0.0,2.0,79,0.00,,,0.00,Wunderground v.1.15,2013-03-28 02:35:00,
2013-03-27 19:40:00,50.3,44.0,29.95,NNE,15,0.0,2.0,79,0.00,,,0.00,Wunderground v.1.15,2013-03-28 02:40:00,
2013-03-27 19:45:00,50.0,43.7,29.95,NNE,16,0.0,2.0,79,0.00,,,0.00,Wunderground v.1.15,2013-03-28 02:45:00,
2013-03-27 19:50:00,49.7,43.1,29.95,NNE,16,0.0,2.0,78,0.00,,,0.00,Wunderground v.1.15,2013-03-28 02:50:00,
2013-03-27 19:55:00,49.4,42.8,29.95,NNE,16,0.0,2.0,78,0.00,,,0.00,Wunderground v.1.15,2013-03-28 02:55:00,
2013-03-27 20:00:00,49.2,42.3,29.95,NNE,15,0.0,2.0,77,0.00,,,0.00,Wunderground v.1.15,2013-03-28 03:00:00,
2013-03-27 20:05:00,49.1,41.9,29.95,NNE,16,0.0,2.0,76,0.00,,,0.00,Wunderground v.1.15,2013-03-28 03:05:00,
2013-03-27 20:10:00,48.9,41.3,29.95,NNE,16,0.0,2.0,75,0.00,,,0.00,Wunderground v.1.15,2013-03-28 03:10:00,
2013-03-27 20:15:00,48.7,40.8,29.95,NNE,16,0.0,2.0,74,0.00,,,0.00,Wunderground v.1.15,2013-03-28 03:15:00,
2013-03-27 20:20:00,48.5,40.2,29.94,NNE,15,1.0,2.0,73,0.00,,,0.00,Wunderground v.1.15,2013-03-28 03:20:00,
2013-03-27 20:25:00,48.4,40.8,29.94,NNE,15,1.0,2.0,75,0.00,,,0.00,Wunderground v.1.15,2013-03-28 03:25:00,
2013-03-27 20:30:00,48.3,41.1,29.94,NNE,16,0.0,2.0,76,0.00,,,0.00,Wunderground v.1.15,2013-03-28 03:30:00,
2013-03-27 20:35:00,48.1,40.9,29.95,NNE,16,0.0,2.0,76,0.00,,,0.00,Wunderground v.1.15,2013-03-28 03:35:00,
2013-03-27 20:40:00,48.1,41.2,29.95,NNE,16,0.0,2.0,77,0.00,,,0.00,Wunderground v.1.15,2013-03-28 03:40:00,
2013-03-27 20:45:00,48.0,40.5,29.95,NNE,27,1.0,2.0,75,0.00,,,0.00,Wunderground v.1.15,2013-03-28 03:45:00,
2013-03-27 20:50:00,47.9,40.4,29.95,NNE,27,0.0,2.0,75,0.00,,,0.00,Wunderground v.1.15,2013-03-28 03:50:00,
2013-03-27 20:55:00,47.7,40.2,29.95,NNE,27,0.0,2.0,75,0.00,,,0.00,Wunderground v.1.15,2013-03-28 03:55:00,
2013-03-27 21:00:00,47.7,40.8,29.95,NNE,27,0.0,2.0,77,0.00,,,0.00,Wunderground v.1.15,2013-03-28 04:00:00,
2013-03-27 21:05:00,47.8,41.3,29.95,North,354,0.0,2.0,78,0.00,,,0.00,Wunderground v.1.15,2013-03-28 04:05:00,
2013-03-27 21:10:00,47.9,41.7,29.95,North,354,1.0,1.0,79,0.00,,,0.00,Wunderground v.1.15,2013-03-28 04:10:00,
2013-03-27 21:15:00,48.0,41.8,29.95,North,354,0.0,2.0,79,0.00,,,0.00,Wunderground v.1.15,2013-03-28 04:15:00,
2013-03-27 21:20:00,48.7,42.5,29.95,WNW,297,1.0,2.0,79,0.00,,,0.00,Wunderground v.1.15,2013-03-28 04:20:00,
2013-03-27 21:25:00,49.3,43.1,29.95,West,280,1.0,2.0,79,0.00,,,0.00,Wunderground v.1.15,2013-03-28 04:25:00,
2013-03-27 21:30:00,49.4,43.2,29.95,West,280,1.0,2.0,79,0.00,,,0.00,Wunderground v.1.15,2013-03-28 04:30:00,
2013-03-27 21:35:00,49.5,42.9,29.96,West,280,1.0,2.0,78,0.00,,,0.00,Wunderground v.1.15,2013-03-28 04:35:00,
2013-03-27 21:40:00,49.5,42.9,29.96,West,280,0.0,2.0,78,0.00,,,0.00,Wunderground v.1.15,2013-03-28 04:40:00,
2013-03-27 21:45:00,49.5,42.9,29.96,NW,324,0.0,2.0,78,0.00,,,0.00,Wunderground v.1.15,2013-03-28 04:45:00,
2013-03-27 21:50:00,49.8,43.2,29.96,NNW,342,1.0,1.0,78,0.00,,,0.00,Wunderground v.1.15,2013-03-28 04:50:00,
2013-03-27 21:55:00,49.6,43.0,29.96,NNW,342,1.0,2.0,78,0.00,,,0.00,Wunderground v.1.15,2013-03-28 04:55:00,
2013-03-27 22:00:00,49.2,42.6,29.96,NW,318,0.0,2.0,78,0.00,,,0.00,Wunderground v.1.15,2013-03-28 05:00:00,
2013-03-27 22:10:00,48.8,42.6,29.97,NW,306,0.0,2.0,79,0.00,,,0.00,Wunderground v.1.15,2013-03-28 05:10:00,
2013-03-27 22:15:00,48.7,42.5,29.97,WSW,240,0.0,2.0,79,0.00,,,0.00,Wunderground v.1.15,2013-03-28 05:15:00,
2013-03-27 22:20:00,48.7,42.5,29.97,NW,309,1.0,1.0,79,0.00,,,0.00,Wunderground v.1.15,2013-03-28 05:20:00,
2013-03-27 22:25:00,48.6,42.4,29.97,WNW,287,1.0,2.0,79,0.00,,,0.00,Wunderground v.1.15,2013-03-28 05:25:00,
2013-03-27 22:30:00,48.4,42.2,29.97,NW,321,1.0,1.0,79,0.00,,,0.00,Wunderground v.1.15,2013-03-28 05:30:00,
2013-03-27 22:35:00,48.0,41.8,29.97,WNW,291,1.0,2.0,79,0.00,,,0.00,Wunderground v.1.15,2013-03-28 05:35:00,
2013-03-27 22:40:00,47.7,41.5,29.97,WNW,291,1.0,2.0,79,0.00,,,0.00,Wunderground v.1.15,2013-03-28 05:40:00,
2013-03-27 22:45:00,47.6,41.4,29.97,WNW,291,0.0,2.0,79,0.00,,,0.00,Wunderground v.1.15,2013-03-28 05:45:00,
2013-03-27 22:50:00,47.4,41.2,29.97,WNW,291,0.0,2.0,79,0.00,,,0.00,Wunderground v.1.15,2013-03-28 05:50:00,
2013-03-27 22:55:00,47.1,40.9,29.97,NNW,333,0.0,2.0,79,0.00,,,0.00,Wunderground v.1.15,2013-03-28 05:55:00,
2013-03-27 23:00:00,46.7,40.5,29.97,NNW,328,0.0,2.0,79,0.00,,,0.00,Wunderground v.1.15,2013-03-28 06:00:00,
2013-03-27 23:05:00,46.3,39.8,29.98,WNW,293,0.0,2.0,78,0.00,,,0.00,Wunderground v.1.15,2013-03-28 06:05:00,
2013-03-27 23:10:00,46.5,39.7,29.98,NNW,340,1.0,1.0,77,0.00,,,0.00,Wunderground v.1.15,2013-03-28 06:10:00,
2013-03-27 23:15:00,46.5,40.0,29.98,NNW,340,1.0,2.0,78,0.00,,,0.00,Wunderground v.1.15,2013-03-28 06:15:00,
2013-03-27 23:20:00,45.9,39.1,29.98,NNW,340,0.0,2.0,77,0.00,,,0.00,Wunderground v.1.15,2013-03-28 06:20:00,
2013-03-27 23:30:00,45.4,35.8,29.98,NNW,328,0.0,2.0,69,0.00,,,0.00,Wunderground v.1.15,2013-03-28 06:30:00,
2013-03-27 23:35:00,45.6,37.8,29.98,WSW,258,1.0,2.0,74,0.00,,,0.00,Wunderground v.1.15,2013-03-28 06:35:00,
2013-03-27 23:40:00,45.3,37.5,29.98,West,259,1.0,1.0,74,0.00,,,0.00,Wunderground v.1.15,2013-03-28 06:40:00,
2013-03-27 23:45:00,44.8,36.3,29.98,NE,44,0.0,2.0,72,0.00,,,0.00,Wunderground v.1.15,2013-03-28 06:45:00,
2013-03-27 23:50:00,44.6,35.8,29.98,NNE,15,0.0,2.0,71,0.00,,,0.00,Wunderground v.1.15,2013-03-28 06:50:00,
2013-03-27 23:55:00,44.2,35.0,29.98,NNE,16,0.0,2.0,70,0.00,,,0.00,Wunderground v.1.15,2013-03-28 06:55:00,